GW5195 Weather Reports


time (UTC)temp
F
wind
direction
speed
knots
gust
knots
rain 1hr
in
rain 24hr
in
rain mn
in
humidity
%
barometer
mb
20260906220016 90 93 1.7 3.5 0.00 0.00 0.00 33 1015.4
20260906215037 90 63 1.7 3.5 0.00 0.00 0.00 33 1015.6
20260906214016 90 89 1.7 5.2 0.00 0.00 0.00 33 1015.7
20260906213037 89 66 2.6 5.2 0.00 0.00 0.00 33 1015.7
20260906212016 89 54 2.6 6.1 0.00 0.00 0.00 33 1015.9
20260906211017 87 61 2.6 4.3 0.00 0.00 0.00 35 1016.2
20260906210017 88 60 1.7 3.5 0.00 0.00 0.00 36 1016.3
20260906205016 88 51 1.7 5.2 0.00 0.00 0.00 35 1016.4
20260906204037 91 57 3.5 5.2 0.00 0.00 0.00 32 1016.5
20260906203017 90 108 1.7 4.3 0.00 0.00 0.00 33 1016.5
20260906202017 89 65 1.7 4.3 0.00 0.00 0.00 34 1016.6
20260906201016 90 73 2.6 5.2 0.00 0.00 0.00 35 1016.7
20260906200018 90 65 1.7 4.3 0.00 0.00 0.00 35 1016.8
20260906195036 88 69 1.7 4.3 0.00 0.00 0.00 36 1016.8
20260906194018 87 62 2.6 5.2 0.00 0.00 0.00 36 1017.0
20260906193017 87 65 1.7 4.3 0.00 0.00 0.00 36 1017.1
20260906192018 87 107 2.6 6.1 0.00 0.00 0.00 36 1017.3
20260906191017 86 68 1.7 4.3 0.00 0.00 0.00 37 1017.3
20260906190037 86 49 1.7 5.2 0.00 0.00 0.00 38 1017.5
20260906185017 85 63 1.7 6.1 0.00 0.00 0.00 41 1017.8
20260906184017 85 60 1.7 4.3 0.00 0.00 0.00 41 1018.2
20260906183017 85 357 0.9 3.5 0.00 0.00 0.00 40 1018.4
20260906182017 83 315 0.9 3.5 0.00 0.00 0.00 43 1018.6
20260906181016 82 63 0.9 2.6 0.00 0.00 0.00 46 1018.6
20260906180038 81 66 1.7 4.3 0.00 0.00 0.00 47 1018.8
20260906175016 80 63 1.7 4.3 0.00 0.00 0.00 49 1019.1
20260906174017 80 67 2.6 4.3 0.00 0.00 0.00 50 1019.5
20260906173016 80 51 2.6 4.3 0.00 0.00 0.00 50 1019.5
20260906172017 78 11 0.9 3.5 0.00 0.00 0.00 53 1019.5
20260906171036 77 64 0.9 3.5 0.00 0.00 0.00 54 1019.7
20260906170017 76 41 0.9 2.6 0.00 0.00 0.00 57 1019.8
20260906165016 76 61 1.7 3.5 0.00 0.00 0.00 57 1020.0
20260906164017 76 134 0.9 2.6 0.00 0.00 0.00 57 1020.1
20260906163016 75 115 0.9 3.5 0.00 0.00 0.00 60 1020.1
20260906162037 75 12 0.9 2.6 0.00 0.00 0.00 59 1020.0
20260906161016 74 35 0.9 2.6 0.00 0.00 0.00 59 1019.9
20260906160017 74 45 0.9 3.5 0.00 0.00 0.00 61 1020.0
20260906155018 73 64 1.7 3.5 0.00 0.00 0.00 61 1020.0
20260906154016 72 10 0.9 2.6 0.00 0.00 0.00 63 1020.1
20260906153038 71 52 1.7 3.5 0.00 0.00 0.00 66 1020.1
20260906152016 71 57 1.7 3.5 0.00 0.00 0.00 67 1020.2
20260906151017 69 26 0.9 2.6 0.00 0.00 0.00 70 1020.3
20260906150016 67 44 0.9 3.5 0.00 0.00 0.00 75 1020.2
20260906145037 67 28 0.0 1.7 0.00 0.00 0.00 75 1020.3
20260906144016 68 48 0.9 3.5 0.00 0.00 0.00 75 1020.3
20260906143017 67 25 1.7 4.3 0.00 0.00 0.00 76 1020.1
20260906142016 66 2 0.9 3.5 0.00 0.00 0.00 79 1020.2
20260906141017 65 119 0.9 2.6 0.00 0.00 0.00 81 1020.2
20260906140036 64 196 1.7 3.5 0.00 0.00 0.00 82 1020.2
20260906135017 63 239 2.6 4.3 0.00 0.00 0.00 83 1020.1
20260906134016 62 263 2.6 4.3 0.00 0.00 0.00 84 1020.2
20260906133017 62 268 1.7 3.5 0.00 0.00 0.00 84 1020.2
20260906132016 62 168 0.9 3.5 0.00 0.00 0.00 83 1020.1
20260906131037 62 292 0.9 2.6 0.00 0.00 0.00 83 1020.1
20260906130016 62 284 0.9 3.5 0.00 0.00 0.00 82 1020.0
20260906125017 61 30 1.7 3.5 0.00 0.00 0.00 81 1019.8
20260906124016 61 215 1.7 3.5 0.00 0.00 0.00 81 1019.8
20260906123017 60 209 0.9 3.5 0.00 0.00 0.00 80 1019.8
20260906122016 60 195 0.0 2.6 0.00 0.00 0.00 80 1019.8
20260906121017 61 348 0.9 2.6 0.00 0.00 0.00 79 1019.6
20260906120016 61 21 0.0 0.9 0.00 0.00 0.00 77 1019.7
20260906115037 61 21 0.0 0.9 0.00 0.00 0.00 76 1019.7
20260906114016 61 0.0 0.0 0.00 0.00 0.00 77 1019.6
20260906113017 61 303 0.0 0.9 0.00 0.00 0.00 76 1019.7
20260906112016 61 0.0 0.9 0.00 0.00 0.00 75 1019.5
20260906111017 62 37 0.0 0.9 0.00 0.00 0.00 73 1019.6
20260906110036 62 0.0 0.0 0.00 0.00 0.00 73 1019.5
20260906105017 62 286 0.0 0.9 0.00 0.00 0.00 72 1019.4
20260906104016 63 0.0 0.9 0.00 0.00 0.00 71 1019.5
20260906103017 63 295 0.0 1.7 0.00 0.00 0.00 71 1019.5
20260906102016 64 308 0.0 1.7 0.00 0.00 0.00 71 1019.5
20260906101037 64 294 0.9 1.7 0.00 0.00 0.00 71 1019.4
20260906100016 64 329 0.0 0.9 0.00 0.00 0.00 69 1019.4
20260906095017 65 327 0.0 1.7 0.00 0.00 0.00 68 1019.5
20260906094018 65 322 0.0 0.9 0.00 0.00 0.00 66 1019.5
20260906093016 66 30 0.9 1.7 0.00 0.00 0.00 65 1019.2
20260906092037 66 50 0.9 2.6 0.00 0.00 0.00 64 1019.1
20260906091016 66 48 0.9 1.7 0.00 0.00 0.00 64 1018.7
20260906090017 67 309 0.0 1.7 0.00 0.00 0.00 64 1018.6
20260906085036 67 54 0.0 1.7 0.00 0.00 0.00 62 1018.5
20260906084017 68 318 0.0 0.9 0.00 0.00 0.00 61 1018.8
20260906083016 68 38 0.0 1.7 0.00 0.00 0.00 59 1018.8
20260906082017 69 26 0.9 1.7 0.00 0.00 0.00 59 1018.8
20260906081016 69 29 0.9 2.6 0.00 0.00 0.00 57 1018.8
20260906080036 69 32 0.9 3.5 0.00 0.00 0.00 56 1018.6
20260906075018 69 34 0.9 2.6 0.00 0.00 0.00 54 1018.5
20260906074016 69 357 0.0 1.7 0.00 0.00 0.00 52 1018.7
20260906073017 69 25 0.0 1.7 0.00 0.00 0.00 51 1018.7
20260906072016 70 321 0.0 1.7 0.00 0.00 0.00 50 1018.7
20260906071037 70 44 0.0 1.7 0.00 0.00 0.00 50 1018.8
20260906070016 70 327 0.0 0.9 0.00 0.00 0.00 50 1018.7
20260906065017 70 347 0.0 1.7 0.00 0.00 0.00 49 1018.5
20260906064016 70 35 0.0 2.6 0.00 0.00 0.00 49 1018.6
20260906063017 71 313 0.0 1.7 0.00 0.00 0.00 48 1018.6
20260906062036 71 38 0.9 1.7 0.00 0.00 0.00 48 1018.6
20260906061017 72 43 0.0 1.7 0.00 0.00 0.00 47 1018.7
20260906060017 72 284 0.9 2.6 0.00 0.00 0.00 46 1018.9
20260906055016 72 272 0.0 1.7 0.00 0.00 0.00 46 1019.0
20260906054017 72 9 0.0 1.7 0.00 0.00 0.00 45 1018.8
20260906053016 73 27 0.0 1.7 0.00 0.00 0.00 45 1018.9
20260906052017 73 36 0.9 1.7 0.00 0.00 0.00 45 1018.7
20260906051036 73 37 0.0 1.7 0.00 0.00 0.00 44 1018.7
20260906050017 74 43 0.9 2.6 0.00 0.00 0.00 44 1018.6
20260906045016 74 31 0.9 1.7 0.00 0.00 0.00 43 1018.8
20260906044017 74 254 1.7 3.5 0.00 0.00 0.00 43 1018.5
20260906043016 73 262 0.9 2.6 0.00 0.00 0.00 44 1018.3
20260906042037 75 50 0.0 1.7 0.00 0.00 0.00 41 1018.0
20260906041016 74 53 0.9 2.6 0.00 0.00 0.00 41 1017.8
20260906040017 75 294 0.0 1.7 0.00 0.00 0.00 40 1017.5
20260906035016 76 52 0.9 1.7 0.00 0.00 0.00 39 1017.4
20260906034017 77 37 0.0 1.7 0.00 0.00 0.00 38 1017.6
20260906033036 77 16 0.0 1.7 0.00 0.00 0.00 38 1017.5
20260906032017 78 26 0.0 2.6 0.00 0.00 0.00 37 1017.3
20260906031016 78 51 1.7 3.5 0.00 0.00 0.00 37 1017.2
20260906030017 78 50 0.9 2.6 0.00 0.00 0.00 37 1017.1
20260906025016 78 56 1.7 2.6 0.00 0.00 0.00 36 1016.9
20260906024017 78 53 1.7 1.7 0.00 0.00 0.00 37 1016.7
20260906023036 79 50 0.9 1.7 0.00 0.00 0.00 36 1016.8
20260906022017 80 49 0.9 1.7 0.00 0.00 0.00 34 1016.9
20260906021016 80 44 0.9 1.7 0.00 0.00 0.00 34 1016.6
20260906020017 80 49 0.9 1.7 0.00 0.00 0.00 34 1016.5
20260906015018 81 307 0.0 0.9 0.00 0.00 0.00 33 1016.3
20260906014037 81 50 0.0 1.7 0.00 0.00 0.00 33 1016.2
20260906013016 82 24 0.0 1.7 0.00 0.00 0.00 32 1016.3
20260906012017 83 328 0.9 2.6 0.00 0.00 0.00 31 1016.3
20260906011016 84 296 1.7 5.2 0.00 0.00 0.00 31 1016.2
20260906010017 85 313 0.9 3.5 0.00 0.00 0.00 30 1016.3
20260906005036 86 314 1.7 4.3 0.00 0.00 0.00 29 1016.3
20260906004017 87 311 1.7 4.3 0.00 0.00 0.00 28 1016.4
20260906003016 87 325 1.7 3.5 0.00 0.00 0.00 27 1016.4
20260906002017 87 320 1.7 4.3 0.00 0.00 0.00 28 1016.3
20260906001016 87 312 1.7 3.5 0.00 0.00 0.00 29 1016.4
20260906000037 88 292 1.7 4.3 0.00 0.00 0.00 28 1016.3
20260905235016 89 317 0.9 3.5 0.00 0.00 0.00 27 1016.2
20260905234017 90 337 0.0 2.6 0.00 0.00 0.00 26 1016.2
20260905233016 90 61 1.7 2.6 0.00 0.00 0.00 25 1016.1
20260905232017 91 67 0.9 1.7 0.00 0.00 0.00 25 1016.1
20260905231016 93 2 0.9 4.3 0.00 0.00 0.00 24 1015.8
20260905230017 92 19 0.9 2.6 0.00 0.00 0.00 23 1015.8
20260905225036 93 52 0.9 3.5 0.00 0.00 0.00 23 1015.7
20260905224017 94 339 0.9 2.6 0.00 0.00 0.00 23 1015.7
20260905223016 93 58 1.7 3.5 0.00 0.00 0.00 22 1015.8
20260905222017 94 28 1.7 4.3 0.00 0.00 0.00 23 1015.9
20260905221016 93 83 0.9 3.5 0.00 0.00 0.00 22 1015.8